TimeCST,TemperatureF,Dew PointF,Humidity,Sea Level PressureIn,VisibilityMPH,Wind Direction,Wind SpeedMPH,Gust SpeedMPH,PrecipitationIn,Events,Conditions,WindDirDegrees,DateUTC
12:53 AM,24.1,1.0,37,30.24,10.0,North,13.8,19.6,N/A,,Mostly Cloudy,360,2014-01-28 06:53:00
1:53 AM,23.0,-0.0,37,30.24,10.0,North,11.5,18.4,N/A,,Mostly Cloudy,10,2014-01-28 07:53:00
2:53 AM,23.0,-0.0,37,30.24,10.0,North,15.0,19.6,N/A,,Overcast,360,2014-01-28 08:53:00
3:53 AM,21.9,-0.0,38,30.25,10.0,North,16.1,-,N/A,,Overcast,360,2014-01-28 09:53:00
4:53 AM,21.0,-0.0,40,30.25,10.0,North,17.3,-,N/A,,Overcast,360,2014-01-28 10:53:00
5:53 AM,21.0,-0.0,40,30.27,10.0,North,16.1,-,N/A,,Overcast,10,2014-01-28 11:53:00
6:53 AM,21.0,-0.0,40,30.30,10.0,North,10.4,-,N/A,,Overcast,10,2014-01-28 12:53:00
7:53 AM,21.0,-0.0,40,30.32,10.0,North,13.8,-,N/A,,Overcast,360,2014-01-28 13:53:00
8:53 AM,21.0,-0.0,40,30.31,10.0,North,12.7,-,N/A,,Overcast,360,2014-01-28 14:53:00
9:53 AM,21.0,3.9,48,30.33,5.0,North,10.4,-,0.00,Snow,Light Snow,360,2014-01-28 15:53:00
10:02 AM,19.4,6.8,58,30.32,2.5,NNW,13.8,-,0.00,Snow,Light Snow,340,2014-01-28 16:02:00
10:09 AM,19.4,8.6,63,30.32,2.0,North,11.5,-,0.00,Snow,Light Snow,350,2014-01-28 16:09:00
10:16 AM,19.4,10.4,68,30.33,1.5,North,10.4,-,0.00,Snow,Light Snow,350,2014-01-28 16:16:00
10:27 AM,19.4,12.2,74,30.32,0.5,North,10.4,-,0.01,Snow,Snow,360,2014-01-28 16:27:00
10:39 AM,19.4,12.2,74,30.32,0.5,North,10.4,-,0.01,Snow,Snow,360,2014-01-28 16:39:00
10:53 AM,19.0,14.0,81,30.35,0.8,NNW,10.4,-,0.01,Snow,Light Snow,340,2014-01-28 16:53:00
11:36 AM,17.6,14.0,86,30.31,1.0,North,9.2,-,0.02,Snow,Light Snow,350,2014-01-28 17:36:00
11:53 AM,18.0,12.9,81,30.33,1.0,North,15.0,-,0.02,Snow,Light Snow,350,2014-01-28 17:53:00
12:00 PM,17.6,12.2,79,30.30,0.8,North,10.4,-,0.00,Snow,Light Snow,350,2014-01-28 18:00:00
12:53 PM,19.0,14.0,81,30.31,0.5,NNW,10.4,-,0.02,Snow,Snow,340,2014-01-28 18:53:00
1:27 PM,19.4,14.0,80,30.28,0.5,North,12.7,-,0.02,Snow,Snow,350,2014-01-28 19:27:00
1:53 PM,19.0,12.9,77,30.29,0.8,North,15.0,-,0.03,Snow,Light Snow,350,2014-01-28 19:53:00
1:55 PM,19.4,12.2,74,30.27,1.0,North,13.8,-,0.00,Snow,Light Snow,350,2014-01-28 19:55:00
2:04 PM,19.4,12.2,74,30.27,2.0,North,12.7,-,0.00,Snow,Light Snow,350,2014-01-28 20:04:00
2:11 PM,19.4,12.2,74,30.27,3.0,NNW,11.5,-,0.00,Snow,Light Snow,340,2014-01-28 20:11:00
2:53 PM,19.0,12.0,74,30.28,10.0,North,10.4,-,0.00,,Overcast,350,2014-01-28 20:53:00
3:12 PM,19.4,10.4,68,30.26,10.0,NNW,12.7,-,N/A,,Overcast,340,2014-01-28 21:12:00
3:53 PM,19.0,10.0,68,30.29,10.0,NNW,15.0,-,N/A,,Overcast,340,2014-01-28 21:53:00
4:53 PM,19.0,10.0,68,30.30,10.0,North,10.4,-,N/A,,Overcast,350,2014-01-28 22:53:00
5:53 PM,19.0,9.0,65,30.30,10.0,North,16.1,20.7,N/A,,Overcast,350,2014-01-28 23:53:00
6:53 PM,19.0,9.0,65,30.32,10.0,North,10.4,-,N/A,,Overcast,360,2014-01-29 00:53:00
7:53 PM,19.0,8.1,62,30.35,10.0,NNW,9.2,-,N/A,,Overcast,330,2014-01-29 01:53:00
8:53 PM,19.0,6.1,57,30.36,10.0,NNW,8.1,-,N/A,,Mostly Cloudy,340,2014-01-29 02:53:00
9:53 PM,19.0,5.0,54,30.38,10.0,North,6.9,-,N/A,,Mostly Cloudy,350,2014-01-29 03:53:00
10:53 PM,18.0,3.0,52,30.39,10.0,NNW,11.5,-,N/A,,Overcast,340,2014-01-29 04:53:00
11:53 PM,16.0,1.9,54,30.39,10.0,North,12.7,-,N/A,,Overcast,360,2014-01-29 05:53:00